This is the latest recevied weather packets stored in our database for station/object K5RWS. If no packets are shown the sender has not sent any weather packets the latest 10 day(s).
| Time | Temp. | Humidity | Pressure | Rain* | Wind** | Luminosity | Snow |
|---|---|---|---|---|---|---|---|
| 1777923819 | 23.33° C | 18% | 1015.4 hPa | 0 mm | - | 628 W/m² | - |
| 1777923515 | 23.33° C | 18% | 1015.2 hPa | 0 mm | - | 725 W/m² | - |
| 1777923212 | 23.33° C | 20% | 1015.4 hPa | 0 mm | - | 559 W/m² | - |
| 1777922911 | 22.22° C | 18% | 1015.5 hPa | 0 mm | - | 534 W/m² | - |
| 1777922609 | 22.22° C | 18% | 1015.5 hPa | 0 mm | - | 519 W/m² | - |
| 1777922307 | 22.78° C | 18% | 1015.7 hPa | 0 mm | - | 704 W/m² | - |
| 1777922004 | 22.78° C | 19% | 1015.7 hPa | 0 mm | - | 462 W/m² | - |
| 1777921699 | 22.22° C | 20% | 1015.6 hPa | 0 mm | - | 590 W/m² | - |
| 1777921396 | 21.67° C | 19% | 1016 hPa | 0 mm | - | 498 W/m² | - |
| 1777921092 | 22.22° C | 20% | 1015.9 hPa | 0 mm | - | 425 W/m² | - |
| 1777920789 | 22.78° C | 20% | 1016 hPa | 0 mm | - | 399 W/m² | - |
| 1777920485 | 22.22° C | 21% | 1016.1 hPa | 0 mm | - | 697 W/m² | - |
| 1777920181 | 21.67° C | 20% | 1016.2 hPa | 0 mm | - | 707 W/m² | - |
| 1777919877 | 21.11° C | 20% | 1016.4 hPa | 0 mm | - | 644 W/m² | - |
| 1777919574 | 21.67° C | 20% | 1016.3 hPa | 0 mm | - | 387 W/m² | - |
| 1777919273 | 21.11° C | 21% | 1016.4 hPa | 0 mm | - | 594 W/m² | - |
| 1777918969 | 21.11° C | 20% | 1016.6 hPa | 0 mm | - | 548 W/m² | - |
| 1777918667 | 21.67° C | 20% | 1016.4 hPa | 0 mm | - | 532 W/m² | - |
| 1777918364 | 21.67° C | 19% | 1016.3 hPa | 0 mm | - | 440 W/m² | - |
| 1777918063 | 21.11° C | 20% | 1016.6 hPa | 0 mm | - | 448 W/m² | - |
| 1777917761 | 21.11° C | 19% | 1016.4 hPa | 0 mm | - | 433 W/m² | - |
| 1777917459 | 21.11° C | 19% | 1016.8 hPa | 0 mm | - | 472 W/m² | - |
| 1777917155 | 20.56° C | 19% | 1016.9 hPa | 0 mm | - | 527 W/m² | - |
| 1777916853 | 20.56° C | 22% | 1016.7 hPa | 0 mm | - | 526 W/m² | - |
| 1777916551 | 21.11° C | 22% | 1016.8 hPa | 0 mm | - | 620 W/m² | - |
* Rain latest hour (hover to see other rain measurements)
** Current wind speed in m/s (hover to see current wind gust speed)